Location: Dittelbrunn
(50.0738°N, 10.2196°E)
Time: 04:54:55
(UTC+00:00)

Nadezhda 4 Rocket - Pass Details

Date: 18 September 2020
Orbit: 949 x 993 km, 82.9° (Epoch: 20 October)

Event Time Altitude Azimuth Distance (km) Brightness Sun altitude
Rises 18:49:47 0° 351° (N) 3,642 7.4 -14.1°
Reaches altitude 10° 18:52:18 10° 354° (N) 2,689 6.7 -14.5°
Maximum altitude 18:58:26 70° 78° (ENE) 1,012 3.9 -15.4°
Drops below altitude 10° 19:04:31 10° 162° (SSE) 2,670 5.9 -16.3°
Enters shadow 19:04:41 - 162° (SSE) 2,735 6.0 -16.3°
